UKV614 EGNS-EGKK

Flight info

Callsign UKV614
Flight time 0h 43m
Altitude 35000
Route TIMIS Q39 NOMSU UQ4 WAL L151 DISIT
Aircraft A320/M-SDE3FGHIRWY/LB1

Departure

Time 2026-05-06 21:04
Airport Isle of Man Airport (EGNS)

Arrival

Time 2026-05-06 21:48
Airport London Gatwick Airport (EGKK)
Time Latitude Longitude Altitude Speed Heading
2026-05-06 20:51 54.08629 -4.63265 39 ft 0 kts 224°
2026-05-06 20:57 54.08642 -4.63244 40 ft 4 kts 224°
2026-05-06 20:57 54.08657 -4.63220 40 ft 4 kts 206°
2026-05-06 20:58 54.08677 -4.63219 36 ft 4 kts 135°
2026-05-06 20:58 54.08686 -4.63234 38 ft 0 kts 133°
2026-05-06 21:00 54.08683 -4.63230 39 ft 3 kts 133°
2026-05-06 21:00 54.08668 -4.63204 38 ft 3 kts 133°
2026-05-06 21:01 54.08640 -4.63153 40 ft 11 kts 133°
2026-05-06 21:01 54.08566 -4.63036 41 ft 16 kts 152°
2026-05-06 21:01 54.08457 -4.62993 41 ft 15 kts 168°
2026-05-06 21:01 54.08390 -4.62972 40 ft 8 kts 170°
2026-05-06 21:02 54.08344 -4.62950 39 ft 6 kts 154°
2026-05-06 21:02 54.08302 -4.62923 42 ft 8 kts 175°
2026-05-06 21:02 54.08251 -4.63003 42 ft 14 kts 250°
2026-05-06 21:02 54.08224 -4.63220 40 ft 23 kts 257°
2026-05-06 21:03 54.08184 -4.63535 37 ft 30 kts 258°
2026-05-06 21:03 54.08153 -4.63793 38 ft 15 kts 265°
2026-05-06 21:03 54.08148 -4.63867 37 ft 3 kts 184°
2026-05-06 21:03 54.08143 -4.63853 34 ft 1 kts 105°
2026-05-06 21:04 54.08153 -4.63785 38 ft 17 kts 79°
2026-05-06 21:04 54.08232 -4.63148 41 ft 92 kts 77°
2026-05-06 21:04 54.08405 -4.61735 55 ft 148 kts 78°
2026-05-06 21:04 54.08617 -4.60004 733 ft 147 kts 78°
2026-05-06 21:05 54.08852 -4.58313 1563 ft 146 kts 78°
2026-05-06 21:05 54.09114 -4.56644 2285 ft 145 kts 79°
2026-05-06 21:05 54.09111 -4.54948 2878 ft 146 kts 115°
2026-05-06 21:05 54.08469 -4.53645 3404 ft 151 kts 154°
2026-05-06 21:06 54.07424 -4.52948 3776 ft 172 kts 161°
2026-05-06 21:06 54.06333 -4.51800 4146 ft 199 kts 138°
2026-05-06 21:06 54.05261 -4.50088 4614 ft 223 kts 140°
2026-05-06 21:06 54.04037 -4.48233 5117 ft 248 kts 140°
2026-05-06 21:07 54.02694 -4.46226 5829 ft 263 kts 140°
2026-05-06 21:07 54.01318 -4.44169 6690 ft 271 kts 140°
2026-05-06 21:07 53.99890 -4.42024 7603 ft 276 kts 140°
2026-05-06 21:07 53.98439 -4.39838 8530 ft 281 kts 140°
2026-05-06 21:08 53.96963 -4.37611 9468 ft 287 kts 140°
2026-05-06 21:08 53.95460 -4.35339 10291 ft 295 kts 141°
2026-05-06 21:08 53.93859 -4.32931 10652 ft 319 kts 141°
2026-05-06 21:08 53.92144 -4.30356 11095 ft 337 kts 141°
2026-05-06 21:09 53.90365 -4.27689 11803 ft 345 kts 140°
2026-05-06 21:09 53.88554 -4.24971 12590 ft 351 kts 141°
2026-05-06 21:09 53.86711 -4.22207 13386 ft 356 kts 141°
2026-05-06 21:09 53.84845 -4.19407 14107 ft 361 kts 141°
2026-05-06 21:10 53.82953 -4.16573 14802 ft 366 kts 140°
2026-05-06 21:10 53.81038 -4.13705 15503 ft 370 kts 140°
2026-05-06 21:10 53.79101 -4.10807 16207 ft 374 kts 140°
2026-05-06 21:10 53.77140 -4.07877 16912 ft 378 kts 140°
2026-05-06 21:11 53.75161 -4.04926 17608 ft 381 kts 140°
2026-05-06 21:11 53.73161 -4.01950 18306 ft 385 kts 140°
2026-05-06 21:11 53.71140 -3.98949 18887 ft 389 kts 140°
2026-05-06 21:11 53.69117 -3.95878 19472 ft 393 kts 136°
2026-05-06 21:12 53.67342 -3.92340 20050 ft 398 kts 126°
2026-05-06 21:12 53.65755 -3.88505 20647 ft 400 kts 126°
2026-05-06 21:12 53.64156 -3.84652 21242 ft 403 kts 126°
2026-05-06 21:12 53.62537 -3.80771 21813 ft 406 kts 126°
2026-05-06 21:13 53.60905 -3.76869 22371 ft 409 kts 125°
2026-05-06 21:13 53.59261 -3.72937 22925 ft 412 kts 125°
2026-05-06 21:13 53.57623 -3.69028 23451 ft 416 kts 125°
2026-05-06 21:13 53.55948 -3.65043 23916 ft 419 kts 125°
2026-05-06 21:14 53.54261 -3.61034 24363 ft 422 kts 125°
2026-05-06 21:14 53.52562 -3.56999 24798 ft 424 kts 125°
2026-05-06 21:14 53.50847 -3.52935 25220 ft 427 kts 125°
2026-05-06 21:14 53.49123 -3.48852 25657 ft 430 kts 125°
2026-05-06 21:15 53.47413 -3.44717 26078 ft 432 kts 121°
2026-05-06 21:15 53.46013 -3.40252 26488 ft 434 kts 112°
2026-05-06 21:15 53.44833 -3.35579 26895 ft 436 kts 111°
2026-05-06 21:15 53.43644 -3.30884 27320 ft 439 kts 111°
2026-05-06 21:16 53.42444 -3.26157 27733 ft 441 kts 111°
2026-05-06 21:16 53.41229 -3.21420 28142 ft 444 kts 113°
2026-05-06 21:16 53.39718 -3.16891 28534 ft 448 kts 123°
2026-05-06 21:16 53.37775 -3.12785 28929 ft 452 kts 132°
2026-05-06 21:17 53.35437 -3.09221 29298 ft 456 kts 142°
2026-05-06 21:17 53.32829 -3.06165 29675 ft 459 kts 145°
2026-05-06 21:17 53.30179 -3.03146 29998 ft 462 kts 145°
2026-05-06 21:17 53.27512 -3.00114 30268 ft 465 kts 145°
2026-05-06 21:18 53.24830 -2.97065 30546 ft 468 kts 144°
2026-05-06 21:18 53.22136 -2.94004 30840 ft 470 kts 144°
2026-05-06 21:18 53.19425 -2.90932 31136 ft 471 kts 144°
2026-05-06 21:18 53.16709 -2.87862 31471 ft 472 kts 144°
2026-05-06 21:19 53.13997 -2.84799 31876 ft 471 kts 144°
2026-05-06 21:19 53.11285 -2.81743 32294 ft 470 kts 144°
2026-05-06 21:19 53.08619 -2.78742 32704 ft 469 kts 144°
2026-05-06 21:19 53.05922 -2.75709 33113 ft 468 kts 144°
2026-05-06 21:20 53.03229 -2.72685 33514 ft 467 kts 144°
2026-05-06 21:20 53.01410 -2.70649 33783 ft 467 kts 143°
2026-05-06 21:20 52.97848 -2.66668 34281 ft 466 kts 143°
2026-05-06 21:20 52.95166 -2.63673 34641 ft 464 kts 144°
2026-05-06 21:21 52.92490 -2.60690 34959 ft 464 kts 144°
2026-05-06 21:21 52.87140 -2.54739 35056 ft 463 kts 144°
2026-05-06 21:22 52.81797 -2.48806 35053 ft 462 kts 145°
2026-05-06 21:22 52.76467 -2.42899 34769 ft 460 kts 145°
2026-05-06 21:22 52.73808 -2.39961 34527 ft 460 kts 145°
2026-05-06 21:23 52.71151 -2.37032 34282 ft 459 kts 145°
2026-05-06 21:23 52.68495 -2.34109 34035 ft 458 kts 145°
2026-05-06 21:23 52.65835 -2.31187 33003 ft 463 kts 145°
2026-05-06 21:23 52.63141 -2.28230 32036 ft 466 kts 145°
2026-05-06 21:24 52.60441 -2.25275 31349 ft 463 kts 145°
2026-05-06 21:24 52.57775 -2.22363 30750 ft 458 kts 145°
2026-05-06 21:24 52.55130 -2.19476 30103 ft 454 kts 145°
2026-05-06 21:24 52.52517 -2.16624 29425 ft 448 kts 145°
2026-05-06 21:25 52.49938 -2.13812 28830 ft 442 kts 146°
2026-05-06 21:25 52.47391 -2.11042 28228 ft 437 kts 146°
2026-05-06 21:25 52.44871 -2.08306 27641 ft 431 kts 146°
2026-05-06 21:25 52.42383 -2.05611 27052 ft 426 kts 147°
2026-05-06 21:26 52.39924 -2.02946 26480 ft 422 kts 147°
2026-05-06 21:26 52.37523 -2.00344 25916 ft 417 kts 147°
2026-05-06 21:26 52.35116 -1.97738 25379 ft 413 kts 147°
2026-05-06 21:26 52.32729 -1.95163 24837 ft 408 kts 147°
2026-05-06 21:27 52.30371 -1.92624 24323 ft 404 kts 147°
2026-05-06 21:27 52.28039 -1.90114 23817 ft 400 kts 148°
2026-05-06 21:27 52.25731 -1.87633 23283 ft 395 kts 148°
2026-05-06 21:27 52.23454 -1.85186 22818 ft 389 kts 148°
2026-05-06 21:28 52.21208 -1.82779 22355 ft 383 kts 148°
2026-05-06 21:28 52.18994 -1.80413 21901 ft 378 kts 148°
2026-05-06 21:28 52.16805 -1.78077 21442 ft 374 kts 148°
2026-05-06 21:28 52.14639 -1.75764 20985 ft 371 kts 148°
2026-05-06 21:29 52.12492 -1.73473 20513 ft 368 kts 148°
2026-05-06 21:29 52.10356 -1.71200 20048 ft 365 kts 148°
2026-05-06 21:29 52.08218 -1.68928 19724 ft 372 kts 148°
2026-05-06 21:29 52.06045 -1.66618 19401 ft 374 kts 148°
2026-05-06 21:30 52.03871 -1.64308 19071 ft 373 kts 148°
2026-05-06 21:30 52.01701 -1.62009 18748 ft 371 kts 148°
2026-05-06 21:30 51.99541 -1.59722 18427 ft 370 kts 148°
2026-05-06 21:30 51.97393 -1.57448 18076 ft 368 kts 148°
2026-05-06 21:31 51.95948 -1.55917 17858 ft 367 kts 148°
2026-05-06 21:31 51.93816 -1.53663 17541 ft 365 kts 148°
2026-05-06 21:31 51.91693 -1.51422 17232 ft 364 kts 148°
2026-05-06 21:31 51.89602 -1.49219 16906 ft 362 kts 148°
2026-05-06 21:32 51.87493 -1.46999 16601 ft 361 kts 148°
2026-05-06 21:32 51.83300 -1.42593 15970 ft 358 kts 148°
2026-05-06 21:32 51.81215 -1.40406 15660 ft 357 kts 147°
2026-05-06 21:33 51.79137 -1.38229 15346 ft 355 kts 147°
2026-05-06 21:33 51.77064 -1.36059 15049 ft 354 kts 147°
2026-05-06 21:33 51.75001 -1.33902 14833 ft 353 kts 147°
2026-05-06 21:33 51.72940 -1.31748 14627 ft 353 kts 147°
2026-05-06 21:34 51.70884 -1.29604 14432 ft 352 kts 147°
2026-05-06 21:34 51.68833 -1.27469 14187 ft 351 kts 147°
2026-05-06 21:34 51.66787 -1.25338 13983 ft 350 kts 147°
2026-05-06 21:34 51.64743 -1.23210 13769 ft 349 kts 147°
2026-05-06 21:35 51.62707 -1.21093 13507 ft 348 kts 147°
2026-05-06 21:35 51.60679 -1.18987 13184 ft 346 kts 147°
2026-05-06 21:35 51.58662 -1.16897 12865 ft 344 kts 147°
2026-05-06 21:35 51.56653 -1.14819 12554 ft 343 kts 147°
2026-05-06 21:36 51.54656 -1.12754 12241 ft 340 kts 147°
2026-05-06 21:36 51.52667 -1.10702 11923 ft 339 kts 147°
2026-05-06 21:36 51.50690 -1.08662 11619 ft 337 kts 147°
2026-05-06 21:36 51.48725 -1.06633 11315 ft 335 kts 147°
2026-05-06 21:37 51.46781 -1.04633 11015 ft 328 kts 147°
2026-05-06 21:37 51.44880 -1.02681 10734 ft 321 kts 147°
2026-05-06 21:37 51.43020 -1.00771 10433 ft 312 kts 147°
2026-05-06 21:37 51.41241 -0.98944 10144 ft 299 kts 147°
2026-05-06 21:38 51.39502 -0.97162 9831 ft 295 kts 147°
2026-05-06 21:38 51.37783 -0.95404 9513 ft 292 kts 147°
2026-05-06 21:38 51.36073 -0.93655 9173 ft 291 kts 147°
2026-05-06 21:38 51.34365 -0.91905 8869 ft 290 kts 147°
2026-05-06 21:39 51.32683 -0.90183 8583 ft 284 kts 147°
2026-05-06 21:39 51.31063 -0.88525 8341 ft 276 kts 148°
2026-05-06 21:39 51.29462 -0.86888 8111 ft 269 kts 148°
2026-05-06 21:39 51.27904 -0.85299 7882 ft 262 kts 148°
2026-05-06 21:40 51.26384 -0.83750 7648 ft 256 kts 148°
2026-05-06 21:40 51.24940 -0.82148 7429 ft 251 kts 135°
2026-05-06 21:40 51.23885 -0.79959 7201 ft 248 kts 122°
2026-05-06 21:40 51.22972 -0.77629 6976 ft 247 kts 121°
2026-05-06 21:41 51.22097 -0.75277 6749 ft 246 kts 120°
2026-05-06 21:41 51.21239 -0.72924 6528 ft 245 kts 120°
2026-05-06 21:41 51.20384 -0.70577 6248 ft 244 kts 120°
2026-05-06 21:41 51.19534 -0.68253 5958 ft 242 kts 120°
2026-05-06 21:42 51.18687 -0.65941 5669 ft 241 kts 120°
2026-05-06 21:42 51.17844 -0.63638 5382 ft 240 kts 120°
2026-05-06 21:42 51.17004 -0.61353 5100 ft 239 kts 120°
2026-05-06 21:42 51.16167 -0.59077 4817 ft 238 kts 120°
2026-05-06 21:43 51.15333 -0.56812 4518 ft 236 kts 120°
2026-05-06 21:43 51.14509 -0.54588 4237 ft 229 kts 120°
2026-05-06 21:43 51.13717 -0.52456 3972 ft 219 kts 120°
2026-05-06 21:43 51.12954 -0.50394 3709 ft 214 kts 119°
2026-05-06 21:44 51.12203 -0.48361 3472 ft 212 kts 119°
2026-05-06 21:44 51.11531 -0.46297 3210 ft 209 kts 106°
2026-05-06 21:44 51.11362 -0.44047 3043 ft 202 kts 83°
2026-05-06 21:44 51.11623 -0.41906 2918 ft 195 kts 76°
2026-05-06 21:45 51.11919 -0.39820 2705 ft 190 kts 75°
2026-05-06 21:45 51.12203 -0.37798 2441 ft 184 kts 76°
2026-05-06 21:45 51.12477 -0.35841 2188 ft 179 kts 75°
2026-05-06 21:45 51.12742 -0.33940 1951 ft 173 kts 75°
2026-05-06 21:46 51.12996 -0.32117 1723 ft 165 kts 75°
2026-05-06 21:46 51.13235 -0.30400 1490 ft 153 kts 75°
2026-05-06 21:46 51.13458 -0.28803 1289 ft 144 kts 75°
2026-05-06 21:46 51.13674 -0.27280 1083 ft 139 kts 75°
2026-05-06 21:47 51.13896 -0.25790 891 ft 137 kts 76°
2026-05-06 21:47 51.14092 -0.24309 722 ft 136 kts 78°
2026-05-06 21:47 51.14292 -0.22853 536 ft 136 kts 78°
2026-05-06 21:47 51.14493 -0.21385 376 ft 135 kts 78°
2026-05-06 21:48 51.14693 -0.19925 207 ft 129 kts 78°
2026-05-06 21:48 51.14849 -0.18782 207 ft 81 kts 77°
2026-05-06 21:48 51.14941 -0.18121 204 ft 41 kts 76°
2026-05-06 21:48 51.15057 -0.17798 216 ft 16 kts 50°
2026-05-06 21:49 51.15141 -0.17763 205 ft 10 kts 352°
2026-05-06 21:49 51.15206 -0.17779 209 ft 9 kts 353°
2026-05-06 21:49 51.15259 -0.17742 210 ft 9 kts 60°
2026-05-06 21:49 51.15274 -0.17647 209 ft 9 kts 78°
2026-05-06 21:50 51.15290 -0.17540 213 ft 10 kts 78°
2026-05-06 21:50 51.15302 -0.17422 204 ft 11 kts 76°
2026-05-06 21:50 51.15358 -0.17372 206 ft 11 kts 348°
2026-05-06 21:50 51.15439 -0.17400 204 ft 13 kts 348°
2026-05-06 21:51 51.15523 -0.17440 214 ft 11 kts 326°
2026-05-06 21:51 51.15534 -0.17540 206 ft 8 kts 256°
2026-05-06 21:51 51.15522 -0.17639 204 ft 8 kts 268°
2026-05-06 21:51 51.15561 -0.17673 204 ft 2 kts 349°
2026-05-06 21:52 51.15579 -0.17679 207 ft 2 kts 347°
2026-05-06 21:52 51.15585 -0.17681 214 ft 0 kts 347°